This is the latest recevied weather packets stored in our database for station/object W9WRP. If no packets are shown the sender has not sent any weather packets the latest 10 day(s).
| Time | Temp. | Humidity | Pressure | Rain* | Wind** | Luminosity | Snow |
|---|---|---|---|---|---|---|---|
| 1787438592 | 46.11° C | 13% | 1013.3 hPa | 0 mm | - | 434 W/m² | - |
| 1787438288 | 45° C | 13% | 1013.3 hPa | 0 mm | - | 375 W/m² | - |
| 1787437981 | 44.44° C | 14% | 1013.3 hPa | 0 mm | - | 442 W/m² | - |
| 1787437677 | 45° C | 13% | 1013.6 hPa | 0 mm | - | 476 W/m² | - |
| 1787437369 | 45.56° C | 13% | 1013.4 hPa | 0 mm | - | 452 W/m² | - |
| 1787437065 | 45.56° C | 13% | 1013.5 hPa | 0 mm | - | 463 W/m² | - |
| 1787436760 | 45° C | 13% | 1013.4 hPa | 0 mm | - | 512 W/m² | - |
| 1787436457 | 45.56° C | 13% | 1014 hPa | 0 mm | - | 526 W/m² | - |
| 1787436156 | 45.56° C | 13% | 1013.9 hPa | 0 mm | - | 471 W/m² | - |
| 1787435850 | 45.56° C | 13% | 1013.8 hPa | 0 mm | - | 505 W/m² | - |
| 1787435546 | 45.56° C | 12% | 1013.9 hPa | 0 mm | - | 559 W/m² | - |
| 1787435243 | 45.56° C | 12% | 1014 hPa | 0 mm | - | 567 W/m² | - |
| 1787434938 | 46.11° C | 12% | 1014.1 hPa | 0 mm | - | 581 W/m² | - |
| 1787434635 | 45.56° C | 12% | 1014.1 hPa | 0 mm | - | 592 W/m² | - |
| 1787434331 | 45° C | 12% | 1014.2 hPa | 0 mm | - | 605 W/m² | - |
| 1787434026 | 44.44° C | 13% | 1014.3 hPa | 0 mm | - | 541 W/m² | - |
| 1787433720 | 45° C | 13% | 1014.4 hPa | 0 mm | - | 626 W/m² | - |
| 1787433416 | 45° C | 12% | 1014.4 hPa | 0 mm | - | 633 W/m² | - |
| 1787433111 | 45.56° C | 13% | 1014.5 hPa | 0 mm | - | 643 W/m² | - |
| 1787432808 | 45° C | 14% | 1014.9 hPa | 0 mm | - | 652 W/m² | - |
| 1787432503 | 45° C | 14% | 1014.7 hPa | 0 mm | - | 660 W/m² | - |
| 1787432197 | 45° C | 13% | 1014.9 hPa | 0 mm | - | 665 W/m² | - |
| 1787431897 | 45.56° C | 13% | 1015.1 hPa | 0 mm | - | 674 W/m² | - |
| 1787431592 | 45.56° C | 13% | 1014.9 hPa | 0 mm | - | 680 W/m² | - |
| 1787431288 | 45° C | 14% | 1014.9 hPa | 0 mm | - | 687 W/m² | - |
* Rain latest hour (hover to see other rain measurements)
** Current wind speed in m/s (hover to see current wind gust speed)